Location: Gibsondale
(40.9931°N, 80.2478°W)
Time: 06:56:40
(UTC+00:00)

Cosmos 2082 - Pass Details

Date: 29 October 2020
Orbit: 832 x 857 km, 71.0° (Epoch: 28 November)

Event Time Altitude Azimuth Distance (km) Brightness Sun altitude
Rises 23:17:21 0° 342° (NNW) 3,435 7.0 -11.4°
Reaches altitude 10° 23:19:58 10° 350° (N) 2,497 6.2 -11.9°
Maximum altitude 23:25:23 41° 60° (ENE) 1,226 4.1 -12.9°
Drops below altitude 10° 23:30:45 10° 129° (SE) 2,483 5.7 -13.9°
Enters shadow 23:31:47 - 133° (SE) 2,853 6.1 -14.1°
